Temperature
16 16 16 16 16 17 16 16 16 16 16 16 16 16 16 16 16 16 16 16 15 15 16 15 15 15 15 15 15 15 15 15 15 15 15 15 15 15 15 15 15 15 15
16 16 16 16 16 16 16 16 16 16 16 16 16 16 16 16 16 16 16 15 15 15 15 15 15 15 15 15 15 15 15 15 15 15 15 15 14 14 14 14 14 14 14
16 16 16 16 16 16 16 16 16 16 16 16 16 16 16 15 15 15 15 15 15 15 15 15 15 15 15 15 15 15 15 15 15 14 14 14 14 14 14 14 14 14 14
16 16 16 16 16 16 16 16 16 16 16 16 16 15 15 15 15 15 15 15 15 15 15 15 15 15 15 15 15 14 14 14 14 14 14 14 14 14 14 14 14 14 14
16 16 15 15 15 15 16 16 16 15 15 15 15 15 15 15 15 15 15 15 15 15 15 15 15 15 15 15 14 14 14 14 14 14 14 14 14 14 14 14 14 14 14
16 15 15 15 15 15 15 15 15 15 15 15 15 15 15 15 15 15 14 14 14 14 14 14 14 14 14 14 14 14 14 14 14 14 14 13 14 14 14 14 14 14 14
15 15 15 15 15 15 15 15 15 15 15 15 15 15 15 15 15 15 14 14 14 14 14 14 14 14 14 14 14 14 14 14 14 14 13 13 13 13 13 13 13 13 13
15 15 15 15 15 15 14 15 15 15 15 15 15 15 14 14 14 14 14 14 14 14 14 14 14 14 14 14 14 14 14 14 13 13 13 13 13 13 13 13 13 13 13
15 15 14 14 14 14 14 14 14 14 14 14 14 14 14 14 14 14 14 14 14 14 14 14 14 14 14 13 13 13 13 13 13 13 13 13 13 13 13 13 13 13 13
14 14 14 14 14 14 14 14 14 14 14 14 14 14 14 14 14 14 14 14 14 14 14 14 13 13 13 13 13 13 13 13 13 13 13 13 13 12 12 13 13 12 12
14 14 14 14 14 14 14 14 14 14 14 14 14 14 14 14 13 13 13 13 13 13 13 13 13 13 13 13 13 13 13 13 13 12 12 12 12 12 12 12 12 12 12
13 13 13 13 13 13 13 13 13 13 13 13 13 13 13 13 13 13 13 13 13 13 13 13 13 13 13 13 12 12 12 12 12 12 12 12 12 12 12 12 12 12 11
13 13 13 13 13 13 13 13 13 13 13 13 13 13 13 13 13 13 13 12 12 13 13 13 12 12 12 12 12 12 12 12 12 12 12 12 12 12 12 11 11 11 11
13 13 13 13 13 13 13 13 13 13 13 13 13 13 12 12 12 12 12 12 12 12 12 12 12 12 12 12 12 12 12 12 11 11 11 11 11 11 11 11 11 11 11
13 13 13 12 12 12 12 12 13 12 12 12 12 12 12 12 12 12 12 12 12 12 12 12 12 11 11 11 11 11 11 11 11 11 11 11 11 11 11 11 11 10 10
12 12 12 12 12 12 12 12 12 12 12 12 12 12 12 12 12 12 11 11 11 11 11 11 11 11 11 11 11 11 11 11 11 11 11 11 11 10 10 10 10 10 10
12 12 12 12 12 12 12 12 12 12 12 12 11 11 11 11 11 11 11 11 11 11 11 11 10 10 10 10 10 10 10 10 10 10 10 10 10 10 10 10 10 10 10
12 12 11 11 11 11 11 11 11 11 11 11 11 11 11 11 11 11 11 11 10 10 10 10 10 10 10 10 10 10 10 10 10 10 10 10 10 10 10 10 9 9 9
12 11 11 11 11 11 11 11 11 11 10 10 10 11 11 11 11 10 10 10 10 10 10 10 10 10 10 9 9 9 9 9 9 9 9 9 9 9 9 9 9 9 9
11 11 11 11 11 10 10 10 10 10 10 10 10 10 10 10 10 10 10 10 10 10 9 9 9 9 9 9 9 9 9 9 9 9 9 9 9 9 9 9 9 9 8
11 11 10 10 10 10 10 10 10 10 9 9 10 10 10 10 10 10 10 10 9 9 9 9 9 9 9 9 8 8 8 8 8 8 8 8 8 8 8 8 8 8 8
10 10 10 10 10 10 10 10 9 9 9 9 9 9 9 9 9 9 9 9 9 9 9 9 9 9 8 8 8 8 7 7 7 8 8 8 8 8 8 8 8 8 8
9 9 9 9 9 9 9 9 9 9 9 9 9 9 9 9 9 9 9 9 9 9 9 9 8 9 8 8 8 8 8 7 7 7 7 7 7 7 7 7 7 7 7
9 8 8 9 9 9 9 9 9 9 9 9 8 8 8 8 9 9 9 8 8 8 8 8 8 8 8 8 8 8 8 8 7 7 7 7 7 7 7 7 7 7 7
8 8 8 8 8 8 8 8 8 8 8 8 8 8 8 8 8 8 8 8 8 8 8 8 8 8 8 8 8 7 7 7 7 7 7 7 7 7 7 7 6 6 6
7 7 7 7 7 8 8 8 8 8 8 8 8 8 8 8 8 7 8 7 7 7 7 7 7 7 7 7 7 7 7 7 7 7 7 7 7 7 6 6 6 6 6
Wind_Speed
6 10 16 16 15 15 14 14 14 14 14 14 14 14 14 14 14 14 13 13 13 13 13 13 14 14 15 15 15 16 16 16 16 16 15 15 15 16 16 15 15 14 15
9 13 17 16 15 14 14 14 14 14 13 13 13 13 13 13 13 13 13 13 12 12 13 12 13 13 14 14 14 14 14 14 15 15 15 15 15 15 15 15 14 14 15
11 13 16 16 15 14 14 14 14 14 14 13 13 13 13 13 13 12 13 12 12 12 12 12 12 12 13 13 13 13 13 13 13 13 13 12 13 15 15 15 15 15 15
12 13 15 16 16 15 14 14 14 14 14 13 13 13 12 12 12 12 12 12 12 12 12 12 12 12 11 11 12 12 13 12 11 11 10 10 11 14 15 15 14 14 14
10 13 15 16 16 15 14 14 14 13 13 13 13 13 12 12 12 12 12 12 12 12 12 12 12 11 11 11 11 12 12 11 11 10 10 10 11 13 14 14 14 14 14
9 12 15 16 16 15 15 14 14 13 13 13 13 12 12 12 12 12 12 12 12 12 12 12 12 11 11 11 11 11 11 11 11 11 11 11 11 13 14 14 13 13 14
9 11 14 16 15 15 14 14 13 13 13 13 12 12 12 12 12 12 12 12 12 12 12 11 11 10 10 11 11 11 11 11 12 11 10 10 12 13 13 13 13 13 12
10 10 12 15 15 15 14 14 13 13 13 13 12 12 12 12 12 12 12 12 12 11 11 11 10 10 10 10 11 11 11 11 10 10 9 10 11 12 12 12 12 12 11
9 9 9 11 13 14 14 13 13 13 13 13 12 12 12 12 11 11 11 11 11 11 10 10 10 9 10 10 10 11 11 10 10 8 8 9 11 11 11 11 11 11 11
7 7 7 9 10 10 12 13 13 13 12 12 12 12 12 11 11 11 10 10 11 11 10 10 9 9 9 9 10 10 10 10 9 8 8 9 10 10 10 10 10 10 10
6 5 6 6 8 9 10 11 12 12 12 11 11 12 11 10 10 9 9 10 11 11 10 9 9 8 8 8 9 10 9 9 9 8 8 9 10 10 10 9 9 9 9
6 5 5 5 6 7 8 9 9 9 10 10 10 11 10 10 9 8 9 9 10 10 9 9 8 8 8 8 8 9 9 9 8 7 7 8 9 10 10 9 9 9 9
7 6 5 5 6 6 6 7 7 8 8 9 10 10 10 9 8 8 7 7 7 8 7 7 7 7 7 7 8 8 9 8 7 6 7 8 8 9 9 9 9 8 8
7 6 5 5 5 6 7 6 6 6 6 6 8 10 10 7 6 6 5 6 6 6 6 6 6 7 8 8 8 8 8 8 7 7 7 8 8 8 8 8 8 7 7
7 6 6 5 5 5 6 5 5 5 6 7 8 9 10 7 5 5 4 5 5 5 5 5 6 7 7 7 7 8 7 8 7 7 7 7 7 7 7 7 7 7 7
7 6 6 6 5 6 5 5 5 5 6 7 7 8 9 9 7 6 4 4 5 6 6 6 6 6 5 6 6 6 7 7 7 7 7 7 6 6 6 6 7 7 6
7 6 6 6 5 5 5 5 5 5 7 6 6 8 8 8 9 7 5 4 5 6 7 6 6 6 5 5 4 5 6 7 7 7 7 7 6 6 6 6 6 6 5
7 7 6 6 5 5 4 4 4 5 6 5 6 7 8 9 9 8 5 4 6 7 6 4 4 4 3 3 3 2 4 5 6 6 7 7 6 5 5 5 5 5 5
8 8 7 6 6 5 5 4 4 5 5 5 6 6 7 8 9 8 5 5 7 6 4 4 3 4 4 4 3 3 3 3 4 5 5 6 6 5 5 4 4 4 4
6 7 7 6 6 5 4 3 3 3 3 4 5 6 7 8 9 8 5 6 7 4 4 4 4 4 4 4 4 4 3 2 3 3 4 4 5 5 5 5 4 3 3
5 6 6 6 6 5 4 4 3 3 3 3 4 6 7 8 9 8 5 5 5 4 5 5 4 5 3 3 4 3 3 3 2 1 2 3 3 4 5 4 4 3 2
5 5 6 6 6 6 5 4 3 3 3 3 3 5 7 7 8 7 6 5 5 4 5 5 5 4 2 3 3 3 1 2 2 1 1 1 2 3 3 3 3 2 2
3 5 5 6 5 5 5 4 3 2 2 2 3 3 5 7 8 7 6 5 5 5 6 5 6 5 4 2 2 4 3 3 1 1 1 0 1 1 1 2 2 2 2
2 2 4 5 5 4 5 6 6 5 4 4 4 4 4 6 7 7 7 7 6 5 5 6 5 4 6 4 2 1 2 3 3 1 1 1 0 1 1 1 1 2 2
1 1 2 3 3 4 5 6 7 5 4 3 3 5 5 5 6 6 7 6 6 5 6 6 5 5 5 5 4 2 2 2 2 3 2 2 1 2 1 2 2 2 2
2 1 2 3 3 3 4 5 6 6 6 5 5 5 5 4 4 5 6 6 6 5 5 5 6 6 5 5 4 3 3 3 2 2 2 2 2 2 2 2 2 3 2
Wind_Direction
161 162 154 149 144 140 137 133 129 124 121 120 118 115 113 112 111 110 109 108 106 104 101 98 97 94 93 91 89 87 86 85 85 83 80 80 83 84 83 81 79 77 80
155 158 152 149 146 142 139 137 133 129 125 123 121 119 118 118 116 114 113 111 111 108 104 101 100 98 95 93 91 90 88 88 87 84 81 79 82 85 85 84 82 83 82
143 151 150 148 145 143 140 137 135 132 129 126 126 123 121 120 119 117 116 113 111 109 106 104 102 100 96 93 93 93 92 93 91 87 83 82 86 87 86 85 84 84 83
143 146 149 148 144 143 140 139 137 135 133 131 129 126 124 122 120 118 116 114 113 110 107 105 102 102 98 96 96 94 93 90 90 88 82 84 88 90 87 85 84 84 84
134 142 148 147 145 144 141 140 139 138 136 134 133 130 127 126 124 121 118 114 112 111 110 107 103 101 100 99 98 95 92 89 88 90 83 84 90 92 88 86 86 84 83
130 138 147 148 147 145 143 142 142 140 139 137 137 135 131 128 123 119 118 116 114 113 113 111 106 103 101 102 100 94 89 84 87 87 85 86 90 93 90 88 87 86 83
132 137 148 148 147 146 145 144 144 144 142 140 139 137 134 130 126 122 121 121 119 117 113 112 108 104 103 104 99 93 86 87 92 88 86 90 94 96 92 89 87 87 86
135 135 144 149 147 146 145 145 144 144 145 144 141 138 135 133 131 127 126 125 122 120 117 115 111 106 105 104 99 92 88 91 94 89 89 96 99 96 94 93 89 87 86
130 130 134 144 147 147 146 147 147 146 143 143 141 139 136 133 132 130 128 128 127 124 122 119 115 109 109 105 99 93 91 93 94 90 93 99 102 98 96 95 92 88 90
128 130 132 138 142 142 147 150 148 146 144 142 140 135 131 131 131 130 127 130 131 130 127 123 119 111 111 105 99 96 93 92 94 92 97 106 106 100 97 95 93 91 90
133 136 136 135 138 140 144 150 147 144 144 141 137 132 129 126 126 126 126 130 133 133 130 126 121 113 110 104 100 94 91 92 95 93 101 111 108 103 101 97 95 96 90
154 153 148 147 146 145 146 139 139 141 140 137 135 132 129 128 127 126 127 129 130 130 129 126 119 114 109 103 97 93 92 95 94 93 103 111 110 106 102 98 96 95 92
160 155 152 152 151 146 137 137 134 134 136 137 139 138 135 130 125 120 119 121 124 124 121 121 110 106 109 108 100 98 100 98 93 90 102 110 110 108 105 101 95 95 95
157 159 154 148 145 145 143 141 139 138 137 139 146 146 140 130 125 123 119 122 122 123 120 118 112 110 110 114 113 107 105 103 101 95 98 106 110 109 109 107 101 98 94
162 165 159 147 148 149 142 144 144 143 147 149 149 153 150 142 140 133 133 134 131 130 129 126 121 117 113 114 114 112 110 109 108 103 102 103 111 114 113 111 109 104 99
170 168 161 155 147 147 150 149 147 151 151 148 149 155 156 154 150 145 141 140 142 144 143 139 132 126 118 116 111 113 115 116 114 109 107 106 114 123 123 119 117 113 107
171 165 162 162 148 148 153 155 149 152 151 150 153 155 156 158 155 149 146 148 154 150 142 131 122 118 114 112 106 106 111 118 121 119 117 114 111 116 125 124 120 117 114
163 160 163 161 151 151 149 148 144 148 147 149 154 155 159 160 157 149 148 157 157 147 139 131 127 118 111 112 107 98 103 112 118 123 122 120 114 110 116 126 126 126 122
167 161 160 153 156 156 147 139 141 146 148 152 154 157 162 162 160 154 153 158 156 143 138 144 135 136 129 120 110 90 85 100 112 121 118 122 121 120 114 121 125 129 127
165 160 159 155 157 152 138 125 128 139 147 148 156 164 164 164 164 158 153 157 154 145 148 143 140 131 134 134 110 83 59 72 97 112 124 129 132 132 122 114 112 111 120
151 153 161 161 163 155 153 156 163 176 173 167 168 170 170 168 166 161 159 161 158 163 164 154 141 137 132 130 107 80 32 37 70 80 116 129 130 134 132 130 128 124 124
163 163 164 169 171 172 174 173 168 167 173 176 170 170 174 170 168 169 163 168 167 161 158 158 148 144 144 146 137 129 100 7 2 28 78 122 122 129 132 146 143 143 151
169 179 178 175 176 176 167 146 126 107 113 167 186 191 184 174 173 171 171 169 171 169 171 171 165 154 162 166 148 148 154 196 242 324 323 104 128 138 169 157 159 166 167
183 181 177 173 174 173 166 168 169 176 186 196 189 190 185 177 176 177 177 176 174 173 173 178 173 162 161 168 155 115 133 149 156 192 302 312 238 197 240 238 181 161 176
121 146 173 167 177 176 176 181 181 186 188 177 173 180 188 186 181 180 177 175 177 176 176 175 171 166 168 170 169 156 121 96 121 152 208 262 298 282 260 234 203 187 198
68 113 150 165 182 186 182 184 189 187 182 178 186 189 194 191 187 184 178 176 180 178 177 178 176 174 175 169 167 164 163 163 174 157 178 220 247 273 272 244 213 208 213
Height
1522 1524 1527 1529 1530 1532 1533 1535 1536 1538 1539 1540 1541 1542 1543 1543 1544 1545 1546 1546 1547 1548 1548 1548 1549 1549 1550 1550 1550 1551 1551 1551 1552 1552 1552 1552 1553 1553 1553 1553 1553 1553 1553
1521 1523 1526 1528 1530 1532 1533 1535 1536 1538 1539 1540 1541 1542 1543 1544 1545 1545 1546 1547 1547 1548 1548 1549 1549 1550 1550 1551 1551 1551 1552 1552 1553 1553 1554 1554 1554 1554 1554 1554 1555 1554 1554
1520 1523 1526 1528 1530 1532 1533 1535 1536 1538 1539 1540 1541 1542 1543 1544 1545 1546 1546 1547 1548 1548 1549 1549 1550 1551 1551 1551 1552 1552 1553 1553 1554 1554 1555 1555 1555 1556 1556 1556 1556 1556 1556
1520 1523 1525 1528 1530 1531 1533 1534 1536 1537 1539 1540 1541 1542 1543 1544 1545 1546 1547 1547 1548 1549 1549 1550 1551 1551 1552 1552 1553 1553 1554 1554 1555 1555 1556 1556 1556 1557 1557 1557 1557 1557 1557
1520 1522 1525 1527 1529 1531 1533 1534 1536 1537 1539 1540 1541 1542 1543 1544 1545 1546 1547 1548 1548 1549 1550 1550 1551 1552 1552 1553 1554 1554 1555 1555 1556 1556 1557 1557 1558 1558 1558 1558 1558 1558 1558
1519 1522 1524 1526 1529 1530 1532 1534 1535 1537 1538 1539 1541 1542 1543 1544 1545 1546 1547 1548 1548 1549 1550 1551 1551 1552 1553 1553 1554 1555 1555 1556 1557 1557 1558 1558 1559 1559 1559 1559 1559 1559 1559
1519 1521 1524 1526 1528 1530 1531 1533 1535 1536 1537 1539 1540 1542 1543 1544 1545 1546 1547 1548 1548 1549 1550 1551 1552 1553 1554 1554 1555 1555 1556 1557 1557 1558 1558 1559 1559 1560 1560 1560 1560 1560 1560
1518 1521 1523 1525 1527 1529 1531 1532 1534 1535 1537 1538 1540 1541 1542 1543 1544 1545 1546 1547 1548 1549 1550 1551 1552 1553 1554 1555 1555 1556 1557 1557 1558 1559 1559 1560 1560 1560 1560 1561 1561 1560 1560
1518 1520 1522 1524 1526 1528 1530 1531 1533 1534 1536 1537 1539 1540 1541 1543 1544 1545 1546 1547 1548 1549 1550 1551 1552 1553 1554 1555 1556 1557 1557 1558 1558 1559 1560 1560 1561 1561 1561 1561 1561 1561 1561
1517 1519 1521 1523 1525 1527 1528 1530 1532 1533 1535 1536 1538 1539 1540 1542 1543 1544 1545 1546 1547 1548 1550 1551 1552 1553 1554 1555 1556 1557 1557 1558 1559 1559 1560 1560 1561 1561 1561 1561 1561 1561 1561
1516 1518 1520 1522 1524 1525 1527 1529 1530 1532 1533 1535 1536 1538 1539 1540 1542 1543 1544 1546 1547 1548 1549 1550 1551 1552 1554 1555 1556 1557 1557 1558 1559 1559 1560 1561 1561 1561 1561 1561 1561 1561 1561
1514 1516 1518 1520 1522 1524 1525 1527 1529 1530 1532 1533 1535 1536 1538 1539 1541 1542 1543 1545 1546 1547 1549 1550 1551 1552 1553 1554 1555 1556 1557 1558 1559 1559 1560 1560 1561 1561 1561 1561 1561 1561 1561
1512 1514 1516 1519 1520 1522 1523 1525 1527 1529 1530 1532 1533 1535 1536 1538 1539 1541 1542 1544 1545 1546 1548 1549 1550 1551 1552 1553 1555 1556 1557 1557 1558 1559 1559 1560 1560 1561 1561 1561 1561 1561 1561
1510 1512 1514 1516 1518 1520 1522 1523 1525 1527 1528 1530 1531 1533 1535 1536 1538 1539 1541 1542 1544 1545 1546 1548 1549 1550 1552 1553 1554 1555 1556 1557 1558 1558 1559 1560 1560 1560 1561 1561 1561 1561 1561
1508 1510 1512 1514 1516 1518 1520 1521 1523 1525 1526 1528 1530 1531 1533 1534 1536 1538 1539 1541 1542 1544 1545 1547 1548 1549 1551 1552 1553 1554 1555 1556 1557 1558 1558 1559 1559 1560 1560 1560 1560 1560 1560
1505 1507 1509 1512 1514 1516 1518 1519 1521 1523 1524 1526 1527 1529 1531 1533 1534 1536 1537 1539 1541 1542 1544 1545 1547 1548 1549 1551 1552 1553 1554 1555 1556 1557 1557 1558 1559 1559 1559 1559 1559 1559 1560
1502 1505 1507 1509 1511 1513 1515 1517 1519 1520 1522 1524 1525 1527 1529 1530 1532 1534 1535 1537 1539 1540 1542 1544 1545 1547 1548 1549 1551 1552 1553 1554 1555 1556 1556 1557 1558 1558 1558 1558 1558 1558 1558
1499 1502 1504 1507 1509 1511 1513 1515 1516 1518 1520 1521 1523 1524 1526 1528 1530 1531 1533 1535 1537 1538 1540 1542 1543 1545 1546 1548 1549 1550 1552 1552 1553 1554 1555 1556 1556 1557 1557 1557 1557 1557 1557
1497 1499 1501 1504 1506 1508 1510 1512 1514 1516 1517 1519 1520 1522 1524 1525 1527 1529 1531 1533 1535 1536 1538 1540 1541 1543 1544 1546 1548 1549 1550 1551 1552 1553 1554 1554 1555 1555 1556 1556 1556 1556 1556
1494 1496 1499 1501 1503 1505 1507 1509 1511 1513 1514 1516 1518 1519 1521 1523 1525 1527 1529 1530 1532 1534 1536 1537 1539 1541 1543 1544 1546 1547 1549 1550 1550 1551 1552 1553 1553 1554 1554 1554 1555 1555 1554
1490 1493 1495 1498 1500 1502 1504 1505 1507 1509 1511 1513 1515 1517 1518 1520 1522 1524 1526 1528 1529 1531 1533 1535 1537 1539 1540 1542 1544 1546 1547 1548 1548 1549 1550 1551 1551 1552 1552 1553 1553 1553 1553
1487 1490 1492 1494 1496 1499 1501 1503 1504 1506 1508 1510 1512 1514 1516 1517 1519 1521 1523 1525 1527 1528 1530 1532 1534 1535 1537 1539 1541 1543 1545 1547 1546 1547 1548 1549 1550 1550 1550 1551 1551 1551 1551
1485 1487 1489 1491 1493 1495 1498 1500 1501 1503 1505 1507 1508 1510 1512 1514 1516 1518 1520 1522 1524 1525 1527 1528 1530 1532 1534 1536 1539 1541 1542 1542 1543 1545 1545 1546 1547 1548 1548 1549 1549 1549 1549
1482 1484 1486 1488 1490 1492 1494 1496 1497 1499 1500 1502 1505 1507 1509 1511 1513 1515 1516 1518 1520 1522 1524 1525 1527 1529 1531 1532 1535 1537 1539 1540 1541 1541 1543 1543 1544 1545 1546 1546 1547 1547 1547
1479 1481 1483 1485 1487 1489 1491 1492 1494 1496 1497 1499 1502 1504 1505 1507 1509 1511 1513 1515 1517 1519 1520 1522 1524 1526 1527 1529 1531 1533 1535 1537 1538 1538 1538 1540 1541 1542 1543 1543 1544 1544 1544
1477 1478 1480 1482 1483 1485 1487 1489 1490 1492 1494 1496 1497 1499 1501 1503 1505 1507 1509 1511 1513 1515 1517 1519 1520 1522 1524 1526 1528 1530 1531 1533 1534 1535 1535 1536 1537 1539 1539 1540 1540 1541 1541